Year,Month,Day,Hour,Minute,Value (Times are PST for windspeed in km/hr)
2007,05,08,00,00,0.00
2007,05,08,00,01,0.00
2007,05,08,00,02,0.00
2007,05,08,00,03,0.00
2007,05,08,00,04,0.00
2007,05,08,00,05,0.00
2007,05,08,00,06,0.00
2007,05,08,00,07,0.00
2007,05,08,00,08,0.00
2007,05,08,00,09,0.00
2007,05,08,00,10,0.00
2007,05,08,00,11,0.00
2007,05,08,00,12,0.00
2007,05,08,00,13,0.00
2007,05,08,00,14,0.50
2007,05,08,00,15,0.10
2007,05,08,00,16,0.00
2007,05,08,00,17,0.00
2007,05,08,00,18,0.00
2007,05,08,00,19,0.00
2007,05,08,00,20,0.00
2007,05,08,00,21,0.00
2007,05,08,00,22,0.00
2007,05,08,00,23,0.00
2007,05,08,00,24,0.00
2007,05,08,00,25,0.00
2007,05,08,00,26,0.00
2007,05,08,00,27,0.00
2007,05,08,00,28,0.00
2007,05,08,00,29,0.00
2007,05,08,00,30,0.00
2007,05,08,00,31,0.00
2007,05,08,00,32,0.00
2007,05,08,00,33,0.00
2007,05,08,00,34,0.00
2007,05,08,00,35,0.00
2007,05,08,00,36,0.00
2007,05,08,00,37,0.00
2007,05,08,00,38,0.00
2007,05,08,00,39,0.00
2007,05,08,00,40,0.00
2007,05,08,00,41,0.00
2007,05,08,00,42,0.00
2007,05,08,00,43,0.00
2007,05,08,00,44,0.10
2007,05,08,00,45,0.00
2007,05,08,00,46,0.00
2007,05,08,00,47,0.00
2007,05,08,00,48,0.00
2007,05,08,00,49,0.00
2007,05,08,00,50,0.00
2007,05,08,00,51,0.00
2007,05,08,00,52,0.00
2007,05,08,00,53,0.00
2007,05,08,00,54,0.00
2007,05,08,00,55,0.00
2007,05,08,00,56,0.00
2007,05,08,00,57,0.40
2007,05,08,00,58,0.00
2007,05,08,00,59,0.00
2007,05,08,01,00,0.00
2007,05,08,01,01,0.00
2007,05,08,01,02,0.20
2007,05,08,01,03,0.10
2007,05,08,01,04,0.10
2007,05,08,01,05,0.30
2007,05,08,01,06,1.20
2007,05,08,01,07,0.10
2007,05,08,01,08,0.10
2007,05,08,01,09,0.00
2007,05,08,01,10,0.60
2007,05,08,01,11,1.00
2007,05,08,01,12,0.10
2007,05,08,01,13,0.00
2007,05,08,01,14,0.00
2007,05,08,01,15,0.60
2007,05,08,01,16,0.20
2007,05,08,01,17,0.00
2007,05,08,01,18,0.00
2007,05,08,01,19,0.10
2007,05,08,01,20,0.70
2007,05,08,01,21,1.00
2007,05,08,01,22,0.70
2007,05,08,01,23,0.20
2007,05,08,01,24,0.80
2007,05,08,01,25,1.40
2007,05,08,01,26,1.20
2007,05,08,01,27,1.70
2007,05,08,01,28,2.10
2007,05,08,01,29,0.20
2007,05,08,01,30,0.20
2007,05,08,01,31,0.80
2007,05,08,01,32,1.30
2007,05,08,01,33,1.00
2007,05,08,01,34,0.40
2007,05,08,01,35,1.00
2007,05,08,01,36,0.50
2007,05,08,01,37,2.70
2007,05,08,01,38,2.70
2007,05,08,01,39,2.20
2007,05,08,01,40,2.10
2007,05,08,01,41,1.30
2007,05,08,01,42,1.70
2007,05,08,01,43,2.20
2007,05,08,01,44,1.80
2007,05,08,01,45,1.90
2007,05,08,01,46,1.70
2007,05,08,01,47,0.80
2007,05,08,01,48,1.50
2007,05,08,01,49,1.20
2007,05,08,01,50,1.50
2007,05,08,01,51,2.00
2007,05,08,01,52,0.30
2007,05,08,01,53,1.00
2007,05,08,01,54,0.30
2007,05,08,01,55,0.00
2007,05,08,01,56,0.00
2007,05,08,01,57,0.00
2007,05,08,01,58,0.00
2007,05,08,01,59,0.00
2007,05,08,02,00,0.00
2007,05,08,02,01,0.00
2007,05,08,02,02,0.00
2007,05,08,02,03,0.00
2007,05,08,02,04,0.00
2007,05,08,02,05,0.00
2007,05,08,02,06,0.00
2007,05,08,02,07,0.10
2007,05,08,02,08,0.00
2007,05,08,02,09,0.00
2007,05,08,02,10,0.00
2007,05,08,02,11,0.00
2007,05,08,02,12,0.00
2007,05,08,02,13,0.00
2007,05,08,02,14,0.00
2007,05,08,02,15,0.00
2007,05,08,02,16,0.00
2007,05,08,02,17,0.00
2007,05,08,02,18,0.00
2007,05,08,02,19,0.00
2007,05,08,02,20,0.00
2007,05,08,02,21,0.00
2007,05,08,02,22,0.00
2007,05,08,02,23,0.00
2007,05,08,02,24,0.00
2007,05,08,02,25,0.00
2007,05,08,02,26,0.00
2007,05,08,02,27,0.00
2007,05,08,02,28,0.00
2007,05,08,02,29,0.00
2007,05,08,02,30,0.00
2007,05,08,02,31,0.00
2007,05,08,02,32,0.00
2007,05,08,02,33,0.00
2007,05,08,02,34,0.00
2007,05,08,02,35,0.00
2007,05,08,02,36,0.00
2007,05,08,02,37,0.00
2007,05,08,02,38,0.00
2007,05,08,02,39,0.00
2007,05,08,02,40,0.00
2007,05,08,02,41,0.00
2007,05,08,02,42,0.00
2007,05,08,02,43,0.00
2007,05,08,02,44,0.00
2007,05,08,02,45,0.00
2007,05,08,02,46,0.00
2007,05,08,02,47,0.00
2007,05,08,02,48,0.00
2007,05,08,02,49,0.00
2007,05,08,02,50,0.00
2007,05,08,02,51,0.00
2007,05,08,02,52,0.00
2007,05,08,02,53,0.00
2007,05,08,02,54,0.00
2007,05,08,02,55,0.00
2007,05,08,02,56,0.00
2007,05,08,02,57,0.00
2007,05,08,02,58,0.00
2007,05,08,02,59,0.00
2007,05,08,03,00,0.00
2007,05,08,03,01,0.00
2007,05,08,03,02,0.00
2007,05,08,03,03,0.00
2007,05,08,03,04,0.30
2007,05,08,03,05,1.70
2007,05,08,03,06,1.10
2007,05,08,03,07,0.00
2007,05,08,03,08,0.00
2007,05,08,03,09,0.00
2007,05,08,03,10,0.00
2007,05,08,03,11,0.00
2007,05,08,03,12,0.00
2007,05,08,03,13,0.00
2007,05,08,03,14,0.00
2007,05,08,03,15,0.00
2007,05,08,03,16,0.00
2007,05,08,03,17,0.00
2007,05,08,03,18,0.00
2007,05,08,03,19,0.00
2007,05,08,03,20,0.00
2007,05,08,03,21,0.00
2007,05,08,03,22,0.00
2007,05,08,03,23,0.00
2007,05,08,03,24,0.00
2007,05,08,03,25,0.00
2007,05,08,03,26,0.00
2007,05,08,03,27,0.00
2007,05,08,03,28,0.00
2007,05,08,03,29,0.00
2007,05,08,03,30,0.00
2007,05,08,03,31,0.00
2007,05,08,03,32,0.00
2007,05,08,03,33,0.00
2007,05,08,03,34,0.00
2007,05,08,03,35,0.00
2007,05,08,03,36,0.00
2007,05,08,03,37,0.00
2007,05,08,03,38,0.00
2007,05,08,03,39,0.00
2007,05,08,03,40,0.00
2007,05,08,03,41,0.00
2007,05,08,03,42,0.00
2007,05,08,03,43,0.00
2007,05,08,03,44,0.00
2007,05,08,03,45,0.00
2007,05,08,03,46,0.00
2007,05,08,03,47,0.00
2007,05,08,03,48,0.00
2007,05,08,03,49,0.00
2007,05,08,03,50,0.00
2007,05,08,03,51,0.00
2007,05,08,03,52,0.00
2007,05,08,03,53,0.00
2007,05,08,03,54,0.00
2007,05,08,03,55,0.00
2007,05,08,03,56,0.00
2007,05,08,03,57,0.00
2007,05,08,03,58,0.00
2007,05,08,03,59,0.00
2007,05,08,04,00,0.00
2007,05,08,04,01,0.00
2007,05,08,04,02,0.00
2007,05,08,04,03,0.00
2007,05,08,04,04,0.00
2007,05,08,04,05,0.00
2007,05,08,04,06,0.00
2007,05,08,04,07,0.00
2007,05,08,04,08,0.00
2007,05,08,04,09,0.00
2007,05,08,04,10,0.00
2007,05,08,04,11,0.00
2007,05,08,04,12,0.00
2007,05,08,04,13,0.00
2007,05,08,04,14,0.00
2007,05,08,04,15,0.00
2007,05,08,04,16,0.10
2007,05,08,04,17,0.00
2007,05,08,04,18,0.00
2007,05,08,04,19,0.00
2007,05,08,04,20,0.20
2007,05,08,04,21,1.00
2007,05,08,04,22,0.00
2007,05,08,04,23,0.00
2007,05,08,04,24,0.00
2007,05,08,04,25,0.00
2007,05,08,04,26,0.00
2007,05,08,04,27,0.00
2007,05,08,04,28,0.00
2007,05,08,04,29,0.00
2007,05,08,04,30,0.00
2007,05,08,04,31,0.10
2007,05,08,04,32,1.40
2007,05,08,04,33,1.50
2007,05,08,04,34,1.00
2007,05,08,04,35,0.10
2007,05,08,04,36,0.20
2007,05,08,04,37,0.00
2007,05,08,04,38,0.00
2007,05,08,04,39,0.00
2007,05,08,04,40,0.00
2007,05,08,04,41,0.00
2007,05,08,04,42,0.00
2007,05,08,04,43,0.00
2007,05,08,04,44,0.00
2007,05,08,04,45,0.00
2007,05,08,04,46,0.00
2007,05,08,04,47,0.10
2007,05,08,04,48,0.30
2007,05,08,04,49,0.00
2007,05,08,04,50,0.00
2007,05,08,04,51,0.00
2007,05,08,04,52,0.00
2007,05,08,04,53,0.00
2007,05,08,04,54,0.00
2007,05,08,04,55,0.00
2007,05,08,04,56,0.00
2007,05,08,04,57,0.00
2007,05,08,04,58,0.00
2007,05,08,04,59,0.00
2007,05,08,05,00,0.00
2007,05,08,05,01,0.00
2007,05,08,05,02,0.00
2007,05,08,05,03,0.00
2007,05,08,05,04,0.00
2007,05,08,05,05,0.00
2007,05,08,05,06,0.00
2007,05,08,05,07,0.00
2007,05,08,05,08,0.00
2007,05,08,05,09,0.00
2007,05,08,05,10,0.00
2007,05,08,05,11,0.00
2007,05,08,05,12,0.00
2007,05,08,05,13,0.00
2007,05,08,05,14,0.00
2007,05,08,05,15,0.00
2007,05,08,05,16,0.00
2007,05,08,05,17,0.00
2007,05,08,05,18,0.00
2007,05,08,05,19,0.00
2007,05,08,05,20,0.00
2007,05,08,05,21,0.00
2007,05,08,05,22,0.00
2007,05,08,05,23,0.00
2007,05,08,05,24,0.00
2007,05,08,05,25,0.00
2007,05,08,05,26,0.00
2007,05,08,05,27,0.00
2007,05,08,05,28,0.20
2007,05,08,05,29,0.10
2007,05,08,05,30,1.50
2007,05,08,05,31,3.20
2007,05,08,05,32,3.70
2007,05,08,05,33,3.50
2007,05,08,05,34,2.70
2007,05,08,05,35,1.60
2007,05,08,05,36,1.70
2007,05,08,05,37,0.30
2007,05,08,05,38,1.40
2007,05,08,05,39,0.60
2007,05,08,05,40,0.80
2007,05,08,05,41,3.10
2007,05,08,05,42,2.20
2007,05,08,05,43,1.30
2007,05,08,05,44,0.10
2007,05,08,05,45,1.20
2007,05,08,05,46,2.60
2007,05,08,05,47,1.30
2007,05,08,05,48,0.00
2007,05,08,05,49,0.40
2007,05,08,05,50,0.00
2007,05,08,05,51,0.00
2007,05,08,05,52,0.60
2007,05,08,05,53,0.30
2007,05,08,05,54,1.70
2007,05,08,05,55,0.10
2007,05,08,05,56,0.70
2007,05,08,05,57,0.40
2007,05,08,05,58,1.40
2007,05,08,05,59,2.50
2007,05,08,06,00,1.60
2007,05,08,06,01,1.40
2007,05,08,06,02,0.00
2007,05,08,06,03,0.00
2007,05,08,06,04,0.00
2007,05,08,06,05,1.10
2007,05,08,06,06,1.10
2007,05,08,06,07,0.50
2007,05,08,06,08,0.30
2007,05,08,06,09,0.20
2007,05,08,06,10,2.00
2007,05,08,06,11,0.70
2007,05,08,06,12,0.10
2007,05,08,06,13,1.90
2007,05,08,06,14,1.50
2007,05,08,06,15,0.80
2007,05,08,06,16,0.40
2007,05,08,06,17,1.00
2007,05,08,06,18,0.80
2007,05,08,06,19,1.40
2007,05,08,06,20,2.10
2007,05,08,06,21,0.00
2007,05,08,06,22,0.10
2007,05,08,06,23,0.10
2007,05,08,06,24,0.80
2007,05,08,06,25,1.20
2007,05,08,06,26,1.60
2007,05,08,06,27,1.20
2007,05,08,06,28,1.40
2007,05,08,06,29,2.20
2007,05,08,06,30,0.80
2007,05,08,06,31,0.00
2007,05,08,06,32,0.90
2007,05,08,06,33,1.90
2007,05,08,06,34,1.60
2007,05,08,06,35,1.60
2007,05,08,06,36,0.90
2007,05,08,06,37,2.40
2007,05,08,06,38,3.10
2007,05,08,06,39,3.20
2007,05,08,06,40,2.50
2007,05,08,06,41,0.90
2007,05,08,06,42,0.80
2007,05,08,06,43,2.10
2007,05,08,06,44,0.30
2007,05,08,06,45,1.30
2007,05,08,06,46,0.90
2007,05,08,06,47,2.40
2007,05,08,06,48,0.90
2007,05,08,06,49,0.90
2007,05,08,06,50,1.60
2007,05,08,06,51,1.20
2007,05,08,06,52,2.60
2007,05,08,06,53,2.70
2007,05,08,06,54,1.00
2007,05,08,06,55,1.80
2007,05,08,06,56,2.40
2007,05,08,06,57,3.30
2007,05,08,06,58,3.20
2007,05,08,06,59,4.30
2007,05,08,07,00,5.40
2007,05,08,07,01,4.30
2007,05,08,07,02,4.30
2007,05,08,07,03,2.80
2007,05,08,07,04,3.60
2007,05,08,07,05,3.40
2007,05,08,07,06,3.40
2007,05,08,07,07,2.70
2007,05,08,07,08,1.50
2007,05,08,07,09,2.60
2007,05,08,07,10,3.80
2007,05,08,07,11,2.90
2007,05,08,07,12,2.40
2007,05,08,07,13,1.20
2007,05,08,07,14,2.80
2007,05,08,07,15,3.00
2007,05,08,07,16,2.90
2007,05,08,07,17,3.10
2007,05,08,07,18,1.00
2007,05,08,07,19,1.00
2007,05,08,07,20,1.50
2007,05,08,07,21,0.90
2007,05,08,07,22,0.30
2007,05,08,07,23,0.00
2007,05,08,07,24,0.00
2007,05,08,07,25,1.20
2007,05,08,07,26,1.00
2007,05,08,07,27,1.20
2007,05,08,07,28,0.20
2007,05,08,07,29,0.00
2007,05,08,07,30,0.00
2007,05,08,07,31,0.00
2007,05,08,07,32,0.00
2007,05,08,07,33,0.00
2007,05,08,07,34,0.10
2007,05,08,07,35,0.00
2007,05,08,07,36,0.00
2007,05,08,07,37,0.00
2007,05,08,07,38,0.00
2007,05,08,07,39,0.10
2007,05,08,07,40,0.00
2007,05,08,07,41,0.00
2007,05,08,07,42,0.00
2007,05,08,07,43,0.20
2007,05,08,07,44,0.00
2007,05,08,07,45,0.00
2007,05,08,07,46,0.00
2007,05,08,07,47,0.00
2007,05,08,07,48,0.00
2007,05,08,07,49,0.00
2007,05,08,07,50,0.00
2007,05,08,07,51,0.10
2007,05,08,07,52,0.00
2007,05,08,07,53,0.00
2007,05,08,07,54,0.00
2007,05,08,07,55,0.00
2007,05,08,07,56,0.00
2007,05,08,07,57,0.00
2007,05,08,07,58,0.10
2007,05,08,07,59,0.80
2007,05,08,08,00,0.20
2007,05,08,08,01,0.10
2007,05,08,08,02,0.00
2007,05,08,08,03,0.10
2007,05,08,08,04,0.00
2007,05,08,08,05,0.00
2007,05,08,08,06,0.00
2007,05,08,08,07,0.00
2007,05,08,08,08,0.00
2007,05,08,08,09,0.50
2007,05,08,08,10,1.60
2007,05,08,08,11,0.40
2007,05,08,08,12,0.40
2007,05,08,08,13,0.00
2007,05,08,08,14,0.00
2007,05,08,08,15,0.00
2007,05,08,08,16,0.60
2007,05,08,08,17,1.00
2007,05,08,08,18,2.80
2007,05,08,08,19,1.00
2007,05,08,08,20,1.50
2007,05,08,08,21,0.30
2007,05,08,08,22,2.20
2007,05,08,08,23,2.40
2007,05,08,08,24,2.40
2007,05,08,08,25,1.20
2007,05,08,08,26,1.10
2007,05,08,08,27,1.40
2007,05,08,08,28,2.30
2007,05,08,08,29,3.60
2007,05,08,08,30,1.90
2007,05,08,08,31,1.80
2007,05,08,08,32,3.20
2007,05,08,08,33,3.70
2007,05,08,08,34,2.20
2007,05,08,08,35,2.60
2007,05,08,08,36,2.50
2007,05,08,08,37,3.10
2007,05,08,08,38,2.80
2007,05,08,08,39,1.60
2007,05,08,08,40,1.70
2007,05,08,08,41,1.70
2007,05,08,08,42,1.90
2007,05,08,08,43,1.70
2007,05,08,08,44,2.20
2007,05,08,08,45,3.60
2007,05,08,08,46,3.10
2007,05,08,08,47,2.60
2007,05,08,08,48,3.40
2007,05,08,08,49,2.70
2007,05,08,08,50,3.10
2007,05,08,08,51,3.20
2007,05,08,08,52,3.20
2007,05,08,08,53,3.10
2007,05,08,08,54,4.80
2007,05,08,08,55,1.80
2007,05,08,08,56,1.40
2007,05,08,08,57,1.60
2007,05,08,08,58,1.70
2007,05,08,08,59,1.00
2007,05,08,09,00,2.70
2007,05,08,09,01,1.60
2007,05,08,09,02,1.30
2007,05,08,09,03,1.60
2007,05,08,09,04,1.30
2007,05,08,09,05,3.30
2007,05,08,09,06,1.60
2007,05,08,09,07,4.60
2007,05,08,09,08,2.90
2007,05,08,09,09,2.70
2007,05,08,09,10,2.10
2007,05,08,09,11,4.30
2007,05,08,09,12,2.70
2007,05,08,09,13,3.10
2007,05,08,09,14,3.00
2007,05,08,09,15,2.20
2007,05,08,09,16,4.70
2007,05,08,09,17,4.30
2007,05,08,09,18,3.50
2007,05,08,09,19,3.90
2007,05,08,09,20,3.20
2007,05,08,09,21,4.20
2007,05,08,09,22,1.10
2007,05,08,09,23,3.30
2007,05,08,09,24,2.50
2007,05,08,09,25,0.50
2007,05,08,09,26,2.80
2007,05,08,09,27,0.80
2007,05,08,09,28,2.60
2007,05,08,09,29,2.90
2007,05,08,09,30,2.80
2007,05,08,09,31,2.70
2007,05,08,09,32,4.30
2007,05,08,09,33,2.70
2007,05,08,09,34,2.40
2007,05,08,09,35,4.70
2007,05,08,09,36,4.10
2007,05,08,09,37,3.80
2007,05,08,09,38,4.80
2007,05,08,09,39,2.80
2007,05,08,09,40,2.40
2007,05,08,09,41,4.40
2007,05,08,09,42,2.80
2007,05,08,09,43,3.30
2007,05,08,09,44,2.40
2007,05,08,09,45,2.10
2007,05,08,09,46,3.90
2007,05,08,09,47,0.40
2007,05,08,09,48,2.30
2007,05,08,09,49,2.90
2007,05,08,09,50,4.70
2007,05,08,09,51,5.80
2007,05,08,09,52,2.90
2007,05,08,09,53,4.10
2007,05,08,09,54,4.50
2007,05,08,09,55,3.80
2007,05,08,09,56,4.80
2007,05,08,09,57,4.40
2007,05,08,09,58,3.50
2007,05,08,09,59,4.20
2007,05,08,10,00,5.10
2007,05,08,10,01,4.40
2007,05,08,10,02,3.50
2007,05,08,10,03,3.30
2007,05,08,10,04,2.90
2007,05,08,10,05,2.90
2007,05,08,10,06,2.00
2007,05,08,10,07,1.20
2007,05,08,10,08,1.00
2007,05,08,10,09,0.00
2007,05,08,10,10,1.40
2007,05,08,10,11,2.40
2007,05,08,10,12,3.40
2007,05,08,10,13,4.00
2007,05,08,10,14,2.90
2007,05,08,10,15,5.10
2007,05,08,10,16,4.70
2007,05,08,10,17,1.00
2007,05,08,10,18,0.00
2007,05,08,10,19,0.70
2007,05,08,10,20,0.70
2007,05,08,10,21,2.60
2007,05,08,10,22,2.50
2007,05,08,10,23,3.20
2007,05,08,10,24,3.30
2007,05,08,10,25,0.40
2007,05,08,10,26,0.40
2007,05,08,10,27,1.90
2007,05,08,10,28,1.80
2007,05,08,10,29,3.00
2007,05,08,10,30,4.70
2007,05,08,10,31,5.10
2007,05,08,10,32,5.30
2007,05,08,10,33,5.10
2007,05,08,10,34,4.50
2007,05,08,10,35,4.30
2007,05,08,10,36,2.70
2007,05,08,10,37,0.90
2007,05,08,10,38,1.80
2007,05,08,10,39,3.80
2007,05,08,10,40,7.10
2007,05,08,10,41,4.60
2007,05,08,10,42,4.90
2007,05,08,10,43,1.40
2007,05,08,10,44,7.50
2007,05,08,10,45,10.40
2007,05,08,10,46,6.20
2007,05,08,10,47,2.80
2007,05,08,10,48,8.00
2007,05,08,10,49,11.50
2007,05,08,10,50,8.10
2007,05,08,10,51,15.20
2007,05,08,10,52,9.40
2007,05,08,10,53,4.30
2007,05,08,10,54,6.70
2007,05,08,10,55,4.80
2007,05,08,10,56,6.80
2007,05,08,10,57,11.60
2007,05,08,10,58,11.20
2007,05,08,10,59,13.30
2007,05,08,11,00,14.50
2007,05,08,11,01,17.70
2007,05,08,11,02,12.10
2007,05,08,11,03,9.90
2007,05,08,11,04,16.50
2007,05,08,11,05,13.60
2007,05,08,11,06,16.70
2007,05,08,11,07,15.10
2007,05,08,11,08,7.30
2007,05,08,11,09,7.00
2007,05,08,11,10,6.70
2007,05,08,11,11,10.90
2007,05,08,11,12,10.60
2007,05,08,11,13,11.80
2007,05,08,11,14,10.70
2007,05,08,11,15,11.70
2007,05,08,11,16,17.10
2007,05,08,11,17,9.00
2007,05,08,11,18,15.10
2007,05,08,11,19,19.40
2007,05,08,11,20,15.10
2007,05,08,11,21,10.90
2007,05,08,11,22,16.90
2007,05,08,11,23,19.30
2007,05,08,11,24,15.90
2007,05,08,11,25,12.70
2007,05,08,11,26,8.00
2007,05,08,11,27,12.90
2007,05,08,11,28,16.20
2007,05,08,11,29,12.40
2007,05,08,11,30,11.60
2007,05,08,11,31,11.00
2007,05,08,11,32,11.50
2007,05,08,11,33,8.00
2007,05,08,11,34,8.40
2007,05,08,11,35,13.20
2007,05,08,11,36,6.10
2007,05,08,11,37,15.20
2007,05,08,11,38,5.90
2007,05,08,11,39,15.50
2007,05,08,11,40,9.20
2007,05,08,11,41,7.00
2007,05,08,11,42,12.20
2007,05,08,11,43,18.10
2007,05,08,11,44,15.50
2007,05,08,11,45,16.20
2007,05,08,11,46,16.50
2007,05,08,11,47,15.00
2007,05,08,11,48,17.90
2007,05,08,11,49,12.40
2007,05,08,11,50,6.70
2007,05,08,11,51,13.90
2007,05,08,11,52,17.50
2007,05,08,11,53,15.10
2007,05,08,11,54,17.70
2007,05,08,11,55,17.70
2007,05,08,11,56,17.70
2007,05,08,11,57,17.70
2007,05,08,11,58,16.80
2007,05,08,11,59,18.10
2007,05,08,12,00,17.10
2007,05,08,12,01,17.90
2007,05,08,12,02,21.10
2007,05,08,12,03,19.20
2007,05,08,12,04,12.00
2007,05,08,12,05,12.80
2007,05,08,12,06,12.60
2007,05,08,12,07,21.60
2007,05,08,12,08,12.80
2007,05,08,12,09,13.30
2007,05,08,12,10,21.70
2007,05,08,12,11,19.50
2007,05,08,12,12,18.20
2007,05,08,12,13,15.20
2007,05,08,12,14,23.80
2007,05,08,12,15,19.10
2007,05,08,12,16,17.20
2007,05,08,12,17,15.30
2007,05,08,12,18,17.10
2007,05,08,12,19,14.80
2007,05,08,12,20,13.00
2007,05,08,12,21,16.00
2007,05,08,12,22,15.50
2007,05,08,12,23,18.10
2007,05,08,12,24,12.90
2007,05,08,12,25,14.10
2007,05,08,12,26,16.70
2007,05,08,12,27,23.20
2007,05,08,12,28,19.20
2007,05,08,12,29,14.20
2007,05,08,12,30,14.40
2007,05,08,12,31,14.80
2007,05,08,12,32,15.10
2007,05,08,12,33,19.80
2007,05,08,12,34,17.90
2007,05,08,12,35,21.50
2007,05,08,12,36,12.10
2007,05,08,12,37,19.20
2007,05,08,12,38,18.60
2007,05,08,12,39,20.80
2007,05,08,12,40,20.30
2007,05,08,12,41,18.40
2007,05,08,12,42,18.40
2007,05,08,12,43,20.30
2007,05,08,12,44,21.10
2007,05,08,12,45,16.80
2007,05,08,12,46,22.20
2007,05,08,12,47,20.30
2007,05,08,12,48,17.40
2007,05,08,12,49,18.90
2007,05,08,12,50,19.30
2007,05,08,12,51,21.30
2007,05,08,12,52,18.70
2007,05,08,12,53,24.30
2007,05,08,12,54,22.20
2007,05,08,12,55,25.10
2007,05,08,12,56,20.70
2007,05,08,12,57,20.10
2007,05,08,12,58,27.30
2007,05,08,12,59,21.90
2007,05,08,13,00,22.10
2007,05,08,13,01,21.80
2007,05,08,13,02,14.40
2007,05,08,13,03,12.70
2007,05,08,13,04,25.50
2007,05,08,13,05,15.40
2007,05,08,13,06,20.00
2007,05,08,13,07,23.50
2007,05,08,13,08,19.60
2007,05,08,13,09,29.00
2007,05,08,13,10,33.80
2007,05,08,13,11,29.60
2007,05,08,13,12,22.70
2007,05,08,13,13,16.00
2007,05,08,13,14,22.80
2007,05,08,13,15,20.70
2007,05,08,13,16,18.30
2007,05,08,13,17,17.10
2007,05,08,13,18,23.30
2007,05,08,13,19,21.10
2007,05,08,13,20,14.90
2007,05,08,13,21,18.70
2007,05,08,13,22,21.70
2007,05,08,13,23,22.80
2007,05,08,13,24,22.20
2007,05,08,13,25,19.80
2007,05,08,13,26,18.10
2007,05,08,13,27,21.60
2007,05,08,13,28,33.90
2007,05,08,13,29,25.90
2007,05,08,13,30,20.10
2007,05,08,13,31,20.90
2007,05,08,13,32,20.60
2007,05,08,13,33,26.20
2007,05,08,13,34,22.60
2007,05,08,13,35,22.00
2007,05,08,13,36,25.10
2007,05,08,13,37,19.60
2007,05,08,13,38,18.60
2007,05,08,13,39,31.00
2007,05,08,13,40,30.80
2007,05,08,13,41,27.40
2007,05,08,13,42,30.00
2007,05,08,13,43,34.30
2007,05,08,13,44,32.20
2007,05,08,13,45,35.80
2007,05,08,13,46,34.70
2007,05,08,13,47,33.80
2007,05,08,13,48,38.70
2007,05,08,13,49,35.80
2007,05,08,13,50,38.70
2007,05,08,13,51,32.40
2007,05,08,13,52,30.20
2007,05,08,13,53,33.10
2007,05,08,13,54,34.50
2007,05,08,13,55,27.20
2007,05,08,13,56,35.80
2007,05,08,13,57,39.20
2007,05,08,13,58,34.90
2007,05,08,13,59,21.90
2007,05,08,14,00,26.50
2007,05,08,14,01,26.80
2007,05,08,14,02,31.50
2007,05,08,14,03,28.60
2007,05,08,14,04,29.30
2007,05,08,14,05,20.90
2007,05,08,14,06,26.50
2007,05,08,14,07,34.60
2007,05,08,14,08,36.30
2007,05,08,14,09,23.80
2007,05,08,14,10,30.90
2007,05,08,14,11,27.30
2007,05,08,14,12,30.00
2007,05,08,14,13,31.10
2007,05,08,14,14,43.50
2007,05,08,14,15,23.10
2007,05,08,14,16,34.60
2007,05,08,14,17,37.90
2007,05,08,14,18,34.70
2007,05,08,14,19,26.20
2007,05,08,14,20,24.80
2007,05,08,14,21,23.30
2007,05,08,14,22,22.50
2007,05,08,14,23,29.00
2007,05,08,14,24,23.30
2007,05,08,14,25,23.90
2007,05,08,14,26,29.50
2007,05,08,14,27,25.50
2007,05,08,14,28,39.30
2007,05,08,14,29,39.20
2007,05,08,14,30,30.00
2007,05,08,14,31,24.10
2007,05,08,14,32,26.40
2007,05,08,14,33,22.70
2007,05,08,14,34,22.90
2007,05,08,14,35,28.20
2007,05,08,14,36,29.20
2007,05,08,14,37,27.60
2007,05,08,14,38,33.40
2007,05,08,14,39,23.20
2007,05,08,14,40,26.80
2007,05,08,14,41,22.80
2007,05,08,14,42,30.00
2007,05,08,14,43,24.70
2007,05,08,14,44,26.60
2007,05,08,14,45,18.70
2007,05,08,14,46,20.70
2007,05,08,14,47,17.50
2007,05,08,14,48,19.70
2007,05,08,14,49,23.50
2007,05,08,14,50,33.90
2007,05,08,14,51,30.80
2007,05,08,14,52,22.30
2007,05,08,14,53,29.90
2007,05,08,14,54,32.10
2007,05,08,14,55,23.90
2007,05,08,14,56,23.60
2007,05,08,14,57,27.80
2007,05,08,14,58,24.00
2007,05,08,14,59,30.90
2007,05,08,15,00,28.70
2007,05,08,15,01,22.10
2007,05,08,15,02,28.40
2007,05,08,15,03,24.20
2007,05,08,15,04,30.90
2007,05,08,15,05,27.50
2007,05,08,15,06,30.10
2007,05,08,15,07,35.70
2007,05,08,15,08,26.00
2007,05,08,15,09,29.70
2007,05,08,15,10,26.50
2007,05,08,15,11,37.50
2007,05,08,15,12,31.90
2007,05,08,15,13,24.70
2007,05,08,15,14,29.50
2007,05,08,15,15,36.30
2007,05,08,15,16,30.40
2007,05,08,15,17,23.70
2007,05,08,15,18,30.20
2007,05,08,15,19,20.00
2007,05,08,15,20,22.80
2007,05,08,15,21,22.60
2007,05,08,15,22,19.70
2007,05,08,15,23,23.40
2007,05,08,15,24,30.90
2007,05,08,15,25,34.10
2007,05,08,15,26,23.10
2007,05,08,15,27,22.00
2007,05,08,15,28,19.20
2007,05,08,15,29,28.90
2007,05,08,15,30,22.70
2007,05,08,15,31,23.10
2007,05,08,15,32,30.30
2007,05,08,15,33,27.40
2007,05,08,15,34,16.50
2007,05,08,15,35,16.60
2007,05,08,15,36,21.30
2007,05,08,15,37,24.50
2007,05,08,15,38,21.80
2007,05,08,15,39,20.50
2007,05,08,15,40,22.80
2007,05,08,15,41,17.30
2007,05,08,15,42,19.70
2007,05,08,15,43,22.90
2007,05,08,15,44,16.90
2007,05,08,15,45,24.60
2007,05,08,15,46,19.10
2007,05,08,15,47,18.30
2007,05,08,15,48,21.90
2007,05,08,15,49,22.90
2007,05,08,15,50,21.70
2007,05,08,15,51,24.90
2007,05,08,15,52,18.40
2007,05,08,15,53,19.60
2007,05,08,15,54,13.30
2007,05,08,15,55,17.20
2007,05,08,15,56,18.20
2007,05,08,15,57,19.90
2007,05,08,15,58,18.00
2007,05,08,15,59,26.60
2007,05,08,16,00,23.90
2007,05,08,16,01,23.50
2007,05,08,16,02,23.90
2007,05,08,16,03,23.60
2007,05,08,16,04,20.10
2007,05,08,16,05,25.20
2007,05,08,16,06,25.00
2007,05,08,16,07,25.60
2007,05,08,16,08,20.70
2007,05,08,16,09,16.20
2007,05,08,16,10,16.00
2007,05,08,16,11,19.00
2007,05,08,16,12,21.80
2007,05,08,16,13,18.00
2007,05,08,16,14,19.80
2007,05,08,16,15,25.90
2007,05,08,16,16,18.20
2007,05,08,16,17,25.30
2007,05,08,16,18,17.30
2007,05,08,16,19,20.90
2007,05,08,16,20,29.00
2007,05,08,16,21,22.70
2007,05,08,16,22,22.40
2007,05,08,16,23,24.10
2007,05,08,16,24,26.80
2007,05,08,16,25,25.80
2007,05,08,16,26,21.90
2007,05,08,16,27,29.20
2007,05,08,16,28,20.80
2007,05,08,16,29,21.30
2007,05,08,16,30,21.70
2007,05,08,16,31,17.70
2007,05,08,16,32,17.70
2007,05,08,16,33,17.70
2007,05,08,16,34,16.60
2007,05,08,16,35,17.80
2007,05,08,16,36,16.40
2007,05,08,16,37,19.60
2007,05,08,16,38,20.90
2007,05,08,16,39,13.10
2007,05,08,16,40,20.50
2007,05,08,16,41,15.20
2007,05,08,16,42,17.10
2007,05,08,16,43,19.30
2007,05,08,16,44,21.90
2007,05,08,16,45,22.60
2007,05,08,16,46,14.40
2007,05,08,16,47,22.80
2007,05,08,16,48,21.00
2007,05,08,16,49,19.60
2007,05,08,16,50,19.30
2007,05,08,16,51,19.20
2007,05,08,16,52,23.20
2007,05,08,16,53,19.60
2007,05,08,16,54,19.90
2007,05,08,16,55,20.80
2007,05,08,16,56,19.80
2007,05,08,16,57,17.80
2007,05,08,16,58,14.50
2007,05,08,16,59,11.40
2007,05,08,17,00,16.00
2007,05,08,17,01,16.50
2007,05,08,17,02,19.60
2007,05,08,17,03,15.00
2007,05,08,17,04,18.70
2007,05,08,17,05,20.80
2007,05,08,17,06,16.30
2007,05,08,17,07,13.70
2007,05,08,17,08,24.90
2007,05,08,17,09,22.90
2007,05,08,17,10,20.20
2007,05,08,17,11,17.40
2007,05,08,17,12,14.60
2007,05,08,17,13,18.00
2007,05,08,17,14,15.40
2007,05,08,17,15,16.30
2007,05,08,17,16,11.40
2007,05,08,17,17,13.30
2007,05,08,17,18,13.40
2007,05,08,17,19,10.80
2007,05,08,17,20,16.70
2007,05,08,17,21,19.60
2007,05,08,17,22,13.40
2007,05,08,17,23,21.10
2007,05,08,17,24,19.80
2007,05,08,17,25,18.90
2007,05,08,17,26,19.80
2007,05,08,17,27,16.90
2007,05,08,17,28,20.60
2007,05,08,17,29,15.40
2007,05,08,17,30,21.90
2007,05,08,17,31,16.30
2007,05,08,17,32,17.10
2007,05,08,17,33,18.20
2007,05,08,17,34,24.50
2007,05,08,17,35,19.80
2007,05,08,17,36,14.50
2007,05,08,17,37,19.90
2007,05,08,17,38,17.10
2007,05,08,17,39,18.50
2007,05,08,17,40,16.30
2007,05,08,17,41,12.60
2007,05,08,17,42,16.40
2007,05,08,17,43,16.90
2007,05,08,17,44,20.80
2007,05,08,17,45,17.30
2007,05,08,17,46,19.40
2007,05,08,17,47,18.20
2007,05,08,17,48,20.10